This is the latest recevied weather packets stored in our database for station/object N3MFL. If no packets are shown the sender has not sent any weather packets the latest 10 day(s).
| Time | Temp. | Humidity | Pressure | Rain* | Wind** | Luminosity | Snow |
|---|---|---|---|---|---|---|---|
| 1777872297 | 3.89° C | 71% | 1012.1 hPa | 0 mm | - | 0 W/m² | - |
| 1777871995 | 3.33° C | 74% | 1012.1 hPa | 0 mm | - | 0 W/m² | - |
| 1777871690 | 3.33° C | 75% | 1012 hPa | 0 mm | - | 0 W/m² | - |
| 1777871387 | 3.33° C | 74% | 1012.1 hPa | 0 mm | - | 0 W/m² | - |
| 1777871085 | 3.33° C | 74% | 1012.1 hPa | 0 mm | - | 0 W/m² | - |
| 1777870782 | 2.78° C | 76% | 1012.1 hPa | 0 mm | - | 0 W/m² | - |
| 1777870477 | 2.78° C | 79% | 1012 hPa | 0 mm | - | 0 W/m² | - |
| 1777870173 | 2.78° C | 79% | 1012.1 hPa | 0 mm | - | 0 W/m² | - |
| 1777869871 | 2.22° C | 80% | 1012.2 hPa | 0 mm | - | 0 W/m² | - |
| 1777869568 | 2.22° C | 80% | 1012 hPa | 0 mm | - | 0 W/m² | - |
| 1777869266 | 2.22° C | 79% | 1011.9 hPa | 0 mm | - | 0 W/m² | - |
| 1777868963 | 2.22° C | 78% | 1012.2 hPa | 0 mm | - | 0 W/m² | - |
| 1777868659 | 2.78° C | 78% | 1012.1 hPa | 0 mm | - | 0 W/m² | - |
| 1777868356 | 2.78° C | 76% | 1012.2 hPa | 0 mm | - | 0 W/m² | - |
| 1777868052 | 2.78° C | 74% | 1012 hPa | 0 mm | - | 0 W/m² | - |
| 1777867748 | 2.78° C | 72% | 1012.1 hPa | 0 mm | - | 0 W/m² | - |
| 1777867446 | 2.78° C | 74% | 1012 hPa | 0 mm | - | 0 W/m² | - |
| 1777867141 | 2.22° C | 78% | 1012 hPa | 0 mm | - | 0 W/m² | - |
| 1777866839 | 2.22° C | 76% | 1012 hPa | 0 mm | - | 0 W/m² | - |
| 1777866535 | 2.22° C | 77% | 1011.8 hPa | 0 mm | - | 0 W/m² | - |
| 1777866233 | 2.22° C | 76% | 1011.8 hPa | 0 mm | - | 0 W/m² | - |
| 1777865930 | 2.22° C | 75% | 1011.8 hPa | 0 mm | - | 0 W/m² | - |
| 1777865628 | 1.67° C | 76% | 1011.6 hPa | 0 mm | - | 0 W/m² | - |
| 1777865324 | 1.67° C | 80% | 1011.7 hPa | 0 mm | - | 0 W/m² | - |
| 1777865022 | 1.11° C | 81% | 1011.6 hPa | 0 mm | - | 0 W/m² | - |
* Rain latest hour (hover to see other rain measurements)
** Current wind speed in m/s (hover to see current wind gust speed)